{"data":{"norad_id":56839,"epoch":"2026-09-20T21:40:17.113440Z","epoch_age_seconds":83113,"freshness":"FRESH","line1":"1 56839U 23079S   26263.90297585  .00000210  00000+0  17158-4 0  9994","line2":"2 56839  43.0019  84.5717 0001323 272.9987  87.0713 15.27576997182741","mean_motion":15.27576997,"eccentricity":0.0001323,"inclination_deg":43.0019,"raan_deg":84.5717,"arg_perigee_deg":272.9987,"mean_anomaly_deg":87.0713,"bstar":1.7158e-5,"rev_number":18274,"period_min":94.266934028727,"perigee_km":482.15035200655,"apogee_km":483.96582422687,"semimajor_km":6861.1950881167,"source":"CELESTRAK","updated_at":"2026-09-21T09:00:33.517678Z"}}